"Pseudo-MPEC" for P10SBuM

Created 2019 Oct 17 12:07:06 UT using Find_Orb

Click here for an explanation of pseudo-MPECs

 
 Astrometry: 
     P10SBuM  C2019 10 08o/BqhXAstrometry\K?tna6mOSnredacted;;'CJ9[;Viclick-GF51
     P10SBuM  C2019 10 08?3K4Cm`e%vjxp^`-,5:*uw/5XJk!18txhereccu1IajE+ipD)#PrF51
     P10SBuM  C2019 10 08=*V9'eN:isoforTejSN-N9Vi^UuMK?0NI\FS8_ZXgNG:D%h/-u]GF51
     P10SBuM  C2019 10 08QM+`22uv:DX:wpS1N@`PZ^,_explanationL;mGRnRYS8[e$0a?.F51
     P10SBuM  C2019 10 11.40094 04 57 07.53 -17 55 09.0    ~ABAM 21.8 GVNEOCPI52
     P10SBuM  C2019 10 11.40427 04 57 07.82 -17 55 14.6    ~ABAM       VNEOCPI52
     P10SBuM  C2019 10 11.40760 04 57 08.11 -17 55 20.7    ~ABAM 21.8 GVNEOCPI52
     P10SBuM KC2019 10 17.44269 05 05 40.59 -21 14 49.4    ~AHC7 21.5 RoNEOCP291
     P10SBuM KC2019 10 17.45799 05 05 41.72 -21 15 20.1    ~AHC7 21.0 RoNEOCP291
     P10SBuM KC2019 10 17.47328 05 05 42.89 -21 15 50.2    ~AHC7 21.6 RoNEOCP291

Station data:
(291) LPL/Spacewatch II  (N31.961669 W111.599905)  US/Arizona.  Observers J.
   V. Scotti, R. S. McMillan. 1.8-m f/2.7 reflector + CCD.
(F51) Pan-STARRS 1, Haleakala  (N20.707235 W156.255910)  US/Hawaii.
   Observers N. Primak, A. Schultz, S. Watters, J. Thiel, T. Goggia. Measurer
   PS1 Science Consortium. 1.8-m Ritchey-Chrétien + CCD.
(I52) Steward Observatory, Mt. Lemmon Station  (N32.442547 W110.788920)
   US/Arizona.  Observers T. A. Pruyne, B. M. Africano, E. J. Christensen, G.
   A. Farneth, D. C. Fuls, A. R. Gibbs, A. D. Grauer, H. Groeller, J. A.
   Johnson, R. A. Kowalski, S. M. Larson, G. J. Leonard, D. Rankin, R. L.
   Seaman, F. C. Shelly. 1.0-m reflector + CCD.

Orbital elements:  P10SBuM
   Perihelion 2019 Dec 12.048921 +/- 0.323 TT =  1:10:26 (JD 2458829.548921)
Epoch 2019 Oct 17.0 TT = JDT 2458773.5   Earth MOID: 0.7871   AutoNEOCP
M 347.48769073 +/- 0.19             (J2000 ecliptic)
n   0.22323907 +/- 0.00233          Peri.  265.17221 +/- 0.27
a   2.69126154 +/- 0.0188           Node   174.12959 +/- 0.10
e   0.4314051 +/- 0.00306           Incl.   28.75495 +/- 0.06
P   4.42                   H 19.7   G  0.15   U  8.7  
q 1.53023736 +/- 0.00241    Q 3.85228572 +/- 0.0346
From 10 observations 2019 Oct. 8-17; mean residual 0".26
Residuals in arcseconds: 
191008 F51  .00   .02+    191011 I52  .04-  .83-    191017 291  .19-  .18-    
191008 F51  .00   .01+    191011 I52  .00   .17+    191017 291  .10-  .01+    
191008 F51  .02+  .01+    191011 I52  .04+  .66+    
191008 F51  .02-  .04-    191017 291  .29+  .18+    

Ephemerides (geocentric):
Date (UTC) HH   RA              Dec         delta   r     elong  mag " sig PA
---- -- -- --  -------------   -----------  ------ ------ -----  --- ---- ---
2019 10 17 12  05 05 45.113   -21 16 35.21  .87755 1.6105 118.3 21.9 .083  77
2019 10 17 13  05 05 48.438   -21 17 57.80  .87738 1.6104 118.3 21.9 .090  75
2019 10 17 14  05 05 51.760   -21 19 20.40  .87721 1.6103 118.4 21.9 .098  74
2019 10 17 15  05 05 55.079   -21 20 42.99  .87704 1.6102 118.4 21.9 .106  72
2019 10 17 16  05 05 58.395   -21 22 05.57  .87688 1.6101 118.4 21.9 .113  71
2019 10 17 17  05 06 01.708   -21 23 28.15  .87671 1.6100 118.4 21.9 .121  70
2019 10 17 18  05 06 05.018   -21 24 50.72  .87654 1.6098 118.4 21.9 .129  70
2019 10 17 19  05 06 08.325   -21 26 13.29  .87637 1.6097 118.4 21.9 .137  69
2019 10 17 20  05 06 11.629   -21 27 35.85  .87621 1.6096 118.4 21.9 .145  68
2019 10 17 21  05 06 14.930   -21 28 58.41  .87604 1.6095 118.4 21.9 .154  68
2019 10 17 22  05 06 18.228   -21 30 20.96  .87587 1.6094 118.4 21.9 .162  67
2019 10 17 23  05 06 21.522   -21 31 43.50  .87571 1.6093 118.4 21.9 .170  67
2019 10 18 00  05 06 24.814   -21 33 06.04  .87554 1.6092 118.4 21.9 .179  66
2019 10 18 01  05 06 28.103   -21 34 28.57  .87538 1.6090 118.4 21.9 .187  66
2019 10 18 02  05 06 31.388   -21 35 51.10  .87521 1.6089 118.4 21.9 .196  65
2019 10 18 03  05 06 34.671   -21 37 13.62  .87505 1.6088 118.4 21.9 .205  65
2019 10 18 04  05 06 37.951   -21 38 36.13  .87488 1.6087 118.4 21.9 .214  65
2019 10 18 05  05 06 41.227   -21 39 58.64  .87472 1.6086 118.4 21.9 .223  64
2019 10 18 06  05 06 44.500   -21 41 21.14  .87456 1.6085 118.4 21.9 .232  64
2019 10 18 07  05 06 47.771   -21 42 43.64  .87439 1.6084 118.4 21.9 .241  64
2019 10 18 08  05 06 51.038   -21 44 06.12  .87423 1.6082 118.4 21.9 .250  64
2019 10 18 09  05 06 54.302   -21 45 28.60  .87406 1.6081 118.4 21.9 .259  63
2019 10 18 10  05 06 57.563   -21 46 51.08  .87390 1.6080 118.4 21.9 .269  63
2019 10 18 11  05 07 00.821   -21 48 13.54  .87374 1.6079 118.4 21.9 .278  63
2019 10 18 12  05 07 04.076   -21 49 36.00  .87358 1.6078 118.4 21.9 .288  63
2019 10 18 13  05 07 07.328   -21 50 58.46  .87341 1.6077 118.4 21.9 .297  63
2019 10 18 14  05 07 10.577   -21 52 20.90  .87325 1.6076 118.5 21.9 .307  62
2019 10 18 15  05 07 13.822   -21 53 43.34  .87309 1.6075 118.5 21.9 .317  62
2019 10 18 16  05 07 17.065   -21 55 05.77  .87293 1.6073 118.5 21.9 .326  62
2019 10 18 17  05 07 20.304   -21 56 28.19  .87277 1.6072 118.5 21.9 .336  62
2019 10 18 18  05 07 23.541   -21 57 50.61  .87261 1.6071 118.5 21.9 .346  62
2019 10 18 19  05 07 26.774   -21 59 13.01  .87245 1.6070 118.5 21.9 .356  62
2019 10 18 20  05 07 30.004   -22 00 35.41  .87229 1.6069 118.5 21.9 .366  62
2019 10 18 21  05 07 33.231   -22 01 57.81  .87212 1.6068 118.5 21.9 .377  62
2019 10 18 22  05 07 36.455   -22 03 20.19  .87197 1.6067 118.5 21.9 .387  61
2019 10 18 23  05 07 39.676   -22 04 42.56  .87181 1.6066 118.5 21.9 .397  61
2019 10 19 00  05 07 42.894   -22 06 04.93  .87165 1.6064 118.5 21.9 .408  61
2019 10 19 01  05 07 46.108   -22 07 27.29  .87149 1.6063 118.5 21.9 .418  61
2019 10 19 02  05 07 49.320   -22 08 49.64  .87133 1.6062 118.5 21.9 .429  61
2019 10 19 03  05 07 52.528   -22 10 11.98  .87117 1.6061 118.5 21.9 .440  61
2019 10 19 04  05 07 55.733   -22 11 34.31  .87101 1.6060 118.5 21.9 .450  61
2019 10 19 05  05 07 58.935   -22 12 56.64  .87085 1.6059 118.5 21.9 .461  61
2019 10 19 06  05 08 02.134   -22 14 18.95  .87069 1.6058 118.5 21.9 .472  61
2019 10 19 07  05 08 05.330   -22 15 41.26  .87054 1.6057 118.5 21.9 .483  61
2019 10 19 08  05 08 08.523   -22 17 03.55  .87038 1.6055 118.5 21.9 .494  61
2019 10 19 09  05 08 11.712   -22 18 25.84  .87022 1.6054 118.5 21.9 .506  61
2019 10 19 10  05 08 14.899   -22 19 48.12  .87007 1.6053 118.5 21.9 .517  60
2019 10 19 11  05 08 18.082   -22 21 10.39  .86991 1.6052 118.5 21.9 .528  60